Time,TemperatureF,DewpointF,PressureIn,WindDirection,WindDirectionDegrees,WindSpeedMPH,WindSpeedGustMPH,Humidity,HourlyPrecipIn,Conditions,Clouds,dailyrainin,SoftwareType,DateUTC
2013-03-19 00:05:00,32.0,26.0,30.23,East,84,2.0,5.0,79,0.00,,,0.00,weatherlink.com 1.10,2013-03-19 04:05:00,
2013-03-19 00:21:00,31.9,27.0,30.22,ENE,60,2.0,8.0,81,0.00,,,0.00,weatherlink.com 1.10,2013-03-19 04:21:00,
2013-03-19 00:36:00,31.7,27.0,30.21,ENE,58,5.0,8.0,84,0.00,,,0.00,weatherlink.com 1.10,2013-03-19 04:36:00,
2013-03-19 00:51:00,31.0,28.0,30.20,NE,44,3.0,8.0,88,0.00,,,0.00,weatherlink.com 1.10,2013-03-19 04:51:00,
2013-03-19 01:36:00,30.2,29.0,30.14,NE,39,2.0,11.0,93,0.00,,,0.00,weatherlink.com 1.10,2013-03-19 05:36:00,
2013-03-19 02:21:00,30.6,29.0,30.10,East,82,7.0,13.0,94,0.00,,,0.00,weatherlink.com 1.10,2013-03-19 06:21:00,
2013-03-19 02:36:00,31.0,30.0,30.08,East,101,2.0,13.0,94,0.00,,,0.00,weatherlink.com 1.10,2013-03-19 06:36:00,
2013-03-19 02:51:00,31.3,30.0,30.07,NE,48,5.0,13.0,93,0.00,,,0.00,weatherlink.com 1.10,2013-03-19 06:51:00,
2013-03-19 03:06:00,31.5,30.0,30.07,NE,37,2.0,13.0,93,0.00,,,0.00,weatherlink.com 1.10,2013-03-19 07:06:00,
2013-03-19 03:21:00,31.7,30.0,30.05,ESE,109,4.0,11.0,93,0.00,,,0.00,weatherlink.com 1.10,2013-03-19 07:21:00,
2013-03-19 03:36:00,31.9,30.0,30.05,ENE,75,1.0,10.0,93,0.00,,,0.00,weatherlink.com 1.10,2013-03-19 07:36:00,
2013-03-19 03:51:00,32.1,31.0,30.04,NE,50,3.0,13.0,94,0.00,,,0.00,weatherlink.com 1.10,2013-03-19 07:51:00,
2013-03-19 04:06:00,32.2,31.0,30.04,ENE,78,4.0,9.0,94,0.00,,,0.00,weatherlink.com 1.10,2013-03-19 08:06:00,
2013-03-19 04:21:00,32.2,30.0,30.04,NE,51,4.0,11.0,93,0.00,,,0.00,weatherlink.com 1.10,2013-03-19 08:21:00,
2013-03-19 04:36:00,32.1,30.0,30.02,ENE,66,1.0,9.0,93,0.00,,,0.00,weatherlink.com 1.10,2013-03-19 08:36:00,
2013-03-19 04:51:00,31.9,30.0,30.00,East,84,5.0,13.0,94,0.00,,,0.00,weatherlink.com 1.10,2013-03-19 08:51:00,
2013-03-19 05:06:00,31.8,30.0,29.99,NE,56,2.0,14.0,94,0.00,,,0.00,weatherlink.com 1.10,2013-03-19 09:06:00,
2013-03-19 05:21:00,31.9,30.0,30.00,ENE,57,4.0,9.0,94,0.00,,,0.00,weatherlink.com 1.10,2013-03-19 09:21:00,
2013-03-19 05:36:00,32.0,31.0,29.99,ENE,61,7.0,16.0,95,0.00,,,0.00,weatherlink.com 1.10,2013-03-19 09:36:00,
2013-03-19 05:51:00,32.4,31.0,29.99,NNE,27,7.0,11.0,95,0.01,,,0.01,weatherlink.com 1.10,2013-03-19 09:51:00,
2013-03-19 06:06:00,32.6,31.0,29.99,ENE,61,3.0,11.0,95,0.01,,,0.01,weatherlink.com 1.10,2013-03-19 10:06:00,
2013-03-19 06:21:00,32.8,32.0,29.99,East,92,2.0,8.0,95,0.01,,,0.01,weatherlink.com 1.10,2013-03-19 10:21:00,
2013-03-19 06:37:00,32.8,32.0,29.99,ENE,66,7.0,9.0,95,0.01,,,0.01,weatherlink.com 1.10,2013-03-19 10:37:00,
2013-03-19 06:52:00,32.7,32.0,29.98,NE,36,1.0,9.0,95,0.00,,,0.01,weatherlink.com 1.10,2013-03-19 10:52:00,
2013-03-19 07:07:00,32.8,32.0,29.98,East,86,2.0,10.0,95,0.00,,,0.01,weatherlink.com 1.10,2013-03-19 11:07:00,
2013-03-19 07:22:00,32.8,32.0,29.96,NE,38,4.0,11.0,95,0.00,,,0.01,weatherlink.com 1.10,2013-03-19 11:22:00,
2013-03-19 07:37:00,33.0,32.0,29.95,NNE,29,5.0,8.0,96,0.00,,,0.01,weatherlink.com 1.10,2013-03-19 11:37:00,
2013-03-19 07:52:00,33.2,32.0,29.94,NE,55,7.0,16.0,96,0.00,,,0.01,weatherlink.com 1.10,2013-03-19 11:52:00,
2013-03-19 08:07:00,33.4,32.0,29.92,ENE,61,7.0,15.0,96,0.00,,,0.01,weatherlink.com 1.10,2013-03-19 12:07:00,
2013-03-19 08:22:00,33.7,33.0,29.91,ENE,69,3.0,15.0,96,0.01,,,0.02,weatherlink.com 1.10,2013-03-19 12:22:00,
2013-03-19 08:37:00,33.8,33.0,29.90,ENE,78,3.0,16.0,96,0.02,,,0.03,weatherlink.com 1.10,2013-03-19 12:37:00,
2013-03-19 08:52:00,34.2,33.0,29.89,ENE,65,13.0,18.0,96,0.04,,,0.05,weatherlink.com 1.10,2013-03-19 12:52:00,
2013-03-19 09:07:00,34.6,34.0,29.87,NNE,26,8.0,19.0,96,0.05,,,0.06,weatherlink.com 1.10,2013-03-19 13:07:00,
2013-03-19 09:22:00,35.0,34.0,29.86,East,84,6.0,22.0,96,0.05,,,0.07,weatherlink.com 1.10,2013-03-19 13:22:00,
2013-03-19 09:37:00,35.4,34.0,29.84,NE,56,5.0,23.0,96,0.05,,,0.08,weatherlink.com 1.10,2013-03-19 13:37:00,
2013-03-19 09:52:00,35.8,35.0,29.83,NE,44,4.0,17.0,96,0.05,,,0.10,weatherlink.com 1.10,2013-03-19 13:52:00,
2013-03-19 10:07:00,36.2,35.0,29.82,East,80,2.0,26.0,96,0.05,,,0.11,weatherlink.com 1.10,2013-03-19 14:07:00,
2013-03-19 10:22:00,36.4,35.0,29.81,East,92,2.0,14.0,96,0.06,,,0.13,weatherlink.com 1.10,2013-03-19 14:22:00,
2013-03-19 10:37:00,36.8,36.0,29.80,NNE,27,2.0,15.0,96,0.07,,,0.15,weatherlink.com 1.10,2013-03-19 14:37:00,
2013-03-19 10:52:00,37.1,36.0,29.79,East,86,3.0,21.0,96,0.08,,,0.18,weatherlink.com 1.10,2013-03-19 14:52:00,
2013-03-19 11:07:00,37.4,36.0,29.77,ENE,67,5.0,17.0,96,0.10,,,0.21,weatherlink.com 1.10,2013-03-19 15:07:00,
2013-03-19 11:22:00,37.7,37.0,29.76,East,96,5.0,18.0,96,0.11,,,0.24,weatherlink.com 1.10,2013-03-19 15:22:00,
2013-03-19 11:37:00,37.9,37.0,29.75,ENE,64,2.0,13.0,96,0.11,,,0.26,weatherlink.com 1.10,2013-03-19 15:37:00,
2013-03-19 11:53:00,38.2,37.0,29.75,NE,48,7.0,16.0,96,0.12,,,0.30,weatherlink.com 1.10,2013-03-19 15:53:00,
2013-03-19 12:08:00,38.4,37.0,29.74,NE,40,5.0,12.0,96,0.12,,,0.33,weatherlink.com 1.10,2013-03-19 16:08:00,
2013-03-19 12:23:00,38.7,38.0,29.72,NE,44,5.0,10.0,97,0.12,,,0.36,weatherlink.com 1.10,2013-03-19 16:23:00,
2013-03-19 12:38:00,39.1,38.0,29.71,NE,50,4.0,12.0,97,0.14,,,0.40,weatherlink.com 1.10,2013-03-19 16:38:00,
2013-03-19 12:53:00,39.2,39.0,29.69,ENE,65,8.0,11.0,97,0.13,,,0.43,weatherlink.com 1.10,2013-03-19 16:53:00,
2013-03-19 13:08:00,39.2,39.0,29.68,NE,41,5.0,13.0,97,0.12,,,0.45,weatherlink.com 1.10,2013-03-19 17:08:00,
2013-03-19 13:38:00,39.7,39.0,29.65,NE,49,1.0,14.0,97,0.10,,,0.50,weatherlink.com 1.10,2013-03-19 17:38:00,
2013-03-19 13:53:00,40.1,39.0,29.63,ENE,63,3.0,11.0,97,0.10,,,0.53,weatherlink.com 1.10,2013-03-19 17:53:00,
2013-03-19 14:08:00,40.4,40.0,29.61,NE,47,4.0,9.0,97,0.08,,,0.54,weatherlink.com 1.10,2013-03-19 18:08:00,
2013-03-19 14:23:00,41.1,40.0,29.59,ENE,78,5.0,14.0,97,0.08,,,0.56,weatherlink.com 1.10,2013-03-19 18:23:00,
2013-03-19 14:38:00,41.6,41.0,29.58,ENE,76,4.0,11.0,97,0.06,,,0.57,weatherlink.com 1.10,2013-03-19 18:38:00,
2013-03-19 14:53:00,42.0,41.0,29.56,ENE,68,5.0,12.0,97,0.05,,,0.58,weatherlink.com 1.10,2013-03-19 18:53:00,
2013-03-19 15:08:00,42.2,41.0,29.56,ENE,61,3.0,10.0,97,0.06,,,0.60,weatherlink.com 1.10,2013-03-19 19:08:00,
2013-03-19 15:23:00,42.4,42.0,29.56,East,98,3.0,9.0,97,0.05,,,0.61,weatherlink.com 1.10,2013-03-19 19:23:00,
2013-03-19 15:38:00,42.6,42.0,29.55,East,92,1.0,9.0,97,0.06,,,0.63,weatherlink.com 1.10,2013-03-19 19:38:00,
2013-03-19 15:54:00,42.7,42.0,29.54,ENE,71,1.0,10.0,97,0.06,,,0.64,weatherlink.com 1.10,2013-03-19 19:54:00,
2013-03-19 16:08:00,42.9,42.0,29.52,NW,319,0.0,3.0,97,0.04,,,0.64,weatherlink.com 1.10,2013-03-19 20:08:00,
2013-03-19 16:23:00,43.1,42.0,29.52,SSE,154,3.0,3.0,97,0.04,,,0.65,weatherlink.com 1.10,2013-03-19 20:23:00,
2013-03-19 16:38:00,43.2,42.0,29.52,NNW,330,1.0,5.0,97,0.02,,,0.65,weatherlink.com 1.10,2013-03-19 20:38:00,
2013-03-19 16:53:00,42.7,42.0,29.51,NNE,13,2.0,6.0,97,0.02,,,0.66,weatherlink.com 1.10,2013-03-19 20:53:00,
2013-03-19 17:08:00,42.4,42.0,29.50,NNW,340,2.0,8.0,97,0.02,,,0.66,weatherlink.com 1.10,2013-03-19 21:08:00,
2013-03-19 17:23:00,42.6,42.0,29.49,NE,47,2.0,6.0,97,0.02,,,0.67,weatherlink.com 1.10,2013-03-19 21:23:00,
2013-03-19 17:39:00,42.4,42.0,29.48,North,11,1.0,8.0,97,0.02,,,0.67,weatherlink.com 1.10,2013-03-19 21:39:00,
2013-03-19 17:54:00,41.9,41.0,29.49,NNW,329,7.0,8.0,97,0.01,,,0.67,weatherlink.com 1.10,2013-03-19 21:54:00,
2013-03-19 18:09:00,41.1,40.0,29.49,NW,321,5.0,10.0,97,0.01,,,0.67,weatherlink.com 1.10,2013-03-19 22:09:00,
2013-03-19 18:24:00,40.8,40.0,29.49,NW,324,2.0,7.0,97,0.00,,,0.67,weatherlink.com 1.10,2013-03-19 22:24:00,
2013-03-19 18:39:00,40.5,40.0,29.51,WSW,255,4.0,10.0,97,0.00,,,0.67,weatherlink.com 1.10,2013-03-19 22:39:00,
2013-03-19 18:53:00,40.0,39.0,29.53,WNW,287,5.0,9.0,97,0.00,,,0.67,weatherlink.com 1.10,2013-03-19 22:53:00,
2013-03-19 19:09:00,39.6,39.0,29.53,West,267,9.0,10.0,97,0.00,,,0.67,weatherlink.com 1.10,2013-03-19 23:09:00,
2013-03-19 19:24:00,39.2,39.0,29.54,WNW,296,3.0,10.0,98,0.00,,,0.67,weatherlink.com 1.10,2013-03-19 23:24:00,
2013-03-19 19:39:00,38.8,38.0,29.54,WSW,240,3.0,12.0,98,0.00,,,0.67,weatherlink.com 1.10,2013-03-19 23:39:00,
2013-03-19 19:54:00,38.4,38.0,29.54,WSW,240,2.0,11.0,97,0.00,,,0.67,weatherlink.com 1.10,2013-03-19 23:54:00,
2013-03-19 20:09:00,37.9,37.0,29.54,WNW,288,2.0,15.0,97,0.00,,,0.67,weatherlink.com 1.10,2013-03-20 00:09:00,
2013-03-19 20:24:00,37.3,37.0,29.55,West,263,5.0,12.0,97,0.00,,,0.67,weatherlink.com 1.10,2013-03-20 00:24:00,
2013-03-19 20:39:00,36.9,36.0,29.55,WNW,294,2.0,13.0,97,0.00,,,0.67,weatherlink.com 1.10,2013-03-20 00:39:00,
2013-03-19 20:54:00,36.6,36.0,29.57,West,271,5.0,13.0,97,0.00,,,0.67,weatherlink.com 1.10,2013-03-20 00:54:00,
2013-03-19 21:09:00,36.4,36.0,29.59,WSW,239,7.0,15.0,97,0.00,,,0.67,weatherlink.com 1.10,2013-03-20 01:09:00,
2013-03-19 21:24:00,35.9,35.0,29.60,NNW,338,4.0,16.0,97,0.01,,,0.68,weatherlink.com 1.10,2013-03-20 01:24:00,
2013-03-19 21:39:00,35.5,35.0,29.59,WNW,285,6.0,14.0,97,0.01,,,0.68,weatherlink.com 1.10,2013-03-20 01:39:00,
2013-03-19 21:54:00,35.2,35.0,29.62,West,268,9.0,17.0,97,0.01,,,0.68,weatherlink.com 1.10,2013-03-20 01:54:00,
2013-03-19 22:09:00,34.6,34.0,29.61,North,349,5.0,16.0,96,0.01,,,0.68,weatherlink.com 1.10,2013-03-20 02:09:00,
2013-03-19 22:24:00,34.2,33.0,29.62,West,275,9.0,18.0,96,0.00,,,0.68,weatherlink.com 1.10,2013-03-20 02:24:00,
2013-03-19 22:39:00,34.1,33.0,29.64,WNW,292,4.0,16.0,96,0.00,,,0.68,weatherlink.com 1.10,2013-03-20 02:39:00,
2013-03-19 22:54:00,33.9,33.0,29.62,NNE,30,5.0,14.0,96,0.00,,,0.68,weatherlink.com 1.10,2013-03-20 02:54:00,
2013-03-19 23:09:00,33.6,32.0,29.62,North,351,1.0,17.0,95,0.00,,,0.68,weatherlink.com 1.10,2013-03-20 03:09:00,
2013-03-19 23:24:00,33.4,32.0,29.63,WSW,256,1.0,16.0,95,0.00,,,0.68,weatherlink.com 1.10,2013-03-20 03:24:00,
2013-03-19 23:39:00,33.3,32.0,29.65,WSW,257,3.0,13.0,95,0.00,,,0.68,weatherlink.com 1.10,2013-03-20 03:39:00,
2013-03-19 23:54:00,33.2,32.0,29.65,NNW,330,5.0,14.0,95,0.00,,,0.68,weatherlink.com 1.10,2013-03-20 03:54:00,